Regional Weather Roundup
Issued by NWS

Home | Current Version | Previous Version | Graphics & Text | Print | Product List | Glossary On
Versions: 1 2 3 4 5 6 7 8 9 10 11 12 13 14 15 16 17 18 19 20 21 22 23 24 25 26 27 28 29 30 31 32 33 34 35 36 37 38 39 40 41 42 43 44 45 46 47 48 49 50
000
ASUS43 KBIS 291510
RWRND

NORTH DAKOTA REGIONAL WEATHER ROUNDUP
NATIONAL WEATHER SERVICE BISMARCK ND
1000 AM CDT FRI JUL 29 2016

NOTE: "FAIR" INDICATES FEW OR NO CLOUDS BELOW 12,000 FEET WITH NO
SIGNIFICANT WEATHER AND/OR OBSTRUCTIONS TO VISIBILITY.


NDZ001>003-009>011-017-291600-
NORTHWEST NORTH DAKOTA

CITY           SKY/WX    TMP DP  RH WIND       PRES   REMARKS
WILLISTON      SUNNY     68  59  73 VRB6      30.09F
MINOT          MOSUNNY   71  59  65 S7        30.09F
MINOT AFB      MOSUNNY   70  59  69 VRB6      30.08F
$$

NDZ018>021-031>035-040>046-291600-
SOUTHWEST NORTH DAKOTA

CITY           SKY/WX    TMP DP  RH WIND       PRES   REMARKS
BISMARCK       SUNNY     73  62  68 VRB3      30.09F
DICKINSON      PTSUNNY   66  60  81 SE6       30.10F
GARRISON         N/A     68  63  84 S3        30.09F
HETTINGER ARPT SUNNY     70  56  61 E9        30.13S
$$

NDZ004>008-012>016-024-026-027-054-291600-
NORTHEAST NORTH DAKOTA

CITY           SKY/WX    TMP DP  RH WIND       PRES   REMARKS
GRAND FORKS    MOSUNNY   70  57  63 NW5       30.09S
GRND FRKS AFB  SUNNY     69  57  64 N3        30.10S
DEVILS LAKE    CLOUDY    69  58  67 CALM      30.12S
$$

NDZ022-023-025-028>030-036>039-047>053-291600-
SOUTHEAST NORTH DAKOTA

CITY           SKY/WX    TMP DP  RH WIND       PRES   REMARKS
FARGO          SUNNY     72  59  63 CALM      30.08S
JAMESTOWN      CLOUDY    67  59  75 SE5       30.10S
$$





USA.gov is the U.S. government's official web portal to all federal, state and local government web resources and services.